Location: Pensacola
(30.4142°N, 87.2155°W)
Time: 10:45:05
(UTC-06:00)

Tiangong 2 - Visible Passes

Search period start: 23 November 2017 00:00
Search period end: 03 December 2017 00:00
Orbit: 386 x 392 km, 42.8° (Epoch: 22 November)

Date Brightness Start Highest point End Pass type
(mag) Time Alt. Az. Time Alt. Az. Time Alt. Az.
24 Nov 3.0 05:36:32 10° SSW 05:39:26 32° SE 05:42:19 10° ENE visible
25 Nov 4.1 04:39:22 10° S 04:41:23 16° SE 04:43:24 10° E visible
26 Nov 1.1 05:17:19 16° SW 05:19:46 79° SE 05:22:57 10° ENE visible
27 Nov 3.5 04:22:53 24° E 04:22:53 24° E 04:24:34 10° ENE visible
27 Nov 2.3 05:55:44 10° W 05:58:28 26° NNW 06:01:13 10° NE visible
28 Nov 1.6 05:00:29 43° N 05:00:29 43° N 05:03:14 10° NE visible
29 Nov 3.0 05:37:51 14° NW 05:39:01 16° NNW 05:41:10 10° NNE visible
30 Nov 3.7 04:42:41 13° NNE 04:42:41 13° NNE 04:43:16 10° NNE visible
01 Dec 3.5 05:19:43 12° N 05:19:43 12° N 05:20:55 10° NNE visible
